User: anonymous   Login
Location: Newark
(50.8086°N, 4.3114°E)
Time: 14:16:00
(UTC+00:00)
Language:

DOVE 4 - Orbit

View from above orbital plane
View from above orbital plane
View from above satellite
View from above satellite

Ground track
Ground track

The orbit data is extracted from the following two-line orbital elements,

1 39430U 13066Q   20022.11847806  .00000131  00000-0  33168-4 0  9996
2 39430  97.7750 329.6815 0149939 289.1169  69.3849 14.59341458328311
Epoch (UTC): 22 January 2020 02:50:36
Eccentricity: 0.0149939
inclination: 97.7750°
perigee height: 589 km
apogee height: 801 km
right ascension of ascending node: 329.6815°
argument of perigee: 289.1169°
revolutions per day: 14.59341458
mean anomaly at epoch: 69.3849°
orbit number at epoch: 32831

The dashed part of the orbit path shows where the satellite is in the earth's shadow,  

DLR